OBJECT S, 61751

Orbit data source: Space-Track

You're viewing an Uncataloged Satellite

Recently launched and/or uncataloged satellites may have evolving metadata. Metadata may include but not limited to: Owner, Maufacturer, Bus, Motor, and Mission.

OBJECT S, 61751 is a satellite in SSO that was launched on Mon, 04 Nov 2024 UTC via a SOYUZ-2-1B launch vehicle from the Vostochny Cosmodrome (VOSTO). Unknown objects in Earth's orbit typically refer to objects detected orbiting the Earth but have not yet been identified or cataloged. These objects could be anything from previously untracked satellites, spent rocket stages, debris from satellite collisions, or even natural meteoroids temporarily captured by Earth's gravity.

Loading next visibility...
Identifier
61751, 2024-199S
Orbit
SSO
Country
Flag of TBDTBD
Related business
None
Manufacturer
Unknown
Mission
Operational Commercial Technology
Bus & Motor
Unknown
Mass
Unknown
Launch date (UTC)
2024-11-04 (1 year ago)
Launch vehicle
SOYUZ-2-1B
Launch site
Vostochny Cosmodrome (VOSTO)
Object type
Unknown
Shape & HBR
Box, 0.1 m
Radar Cross Section
0.035 m², Medium (>0.1 m² and < 1m²)

Expand to show TLE details & history
Last TLE update: 7 hours ago

TLE from 7 hours ago
0 OBJECT S
1 61751U 24199S   25302.95669461  .00013187  00000-0  43335-3 0  9994
2 61751  97.3299 169.3778 0012420  56.0612 304.1809 15.31604264101831
Epoch: 2025-10-29T22:57Z
TLE epoch observation values (Epoch: 2025-10-29T22:57:38.414Z)
Latitude
0.00004°
Longitude
146.44535°
Altitude
469.361 km
Speed
7.634 km/s
True Right ascension
11h 17m 30s
True Declination
0° 00' 00"
Sunlit
Object was in daylight at epoch
Visualization orbit readout
Latitude
Unknown
Longitude
Unknown
Altitude
Unknown
Speed
Unknown
Apparent Right ascension
Unknown
Apparent Declination
Unknown
Sunlit
N/A
Visualization observer readout
Local Sidereal Time
01:14:35
Azimuth
Unknown
Elevation
Unknown
Doppler factor
Unknown
Orbital elements
Apogee altitude
476.475 km
Perigee altitude
459.47 km
Semi-major axis
6,846.11 km
Eccentricity
0.00124
Inclination
97.3299°
RAAN
169.3778°
Arg. of periapsis
56.0612°
True anomaly
304.06306°
Mean anomaly
304.1809°
Eccentric anomaly
304.12199°
Mean motion
3.83158 °/min
Orbital period
93.96 mins
BSTAR
0.00043335
Loading maneuver chart data...
Computing Atmospheric mass density...
Loading historical data...
Loading historical data...
Loading historical data...
Loading historical data...
Loading historical data...
Loading historical data...
Loading historical data...

Documentation

Showing up to 5 results
|